Regional Weather Roundup
Issued by NWS

Home | Current Version | Previous Version | Text Only | Print | Product List | Glossary On
Versions: 1 2 3 4 5 6 7 8 9 10 11 12 13 14 15 16 17 18 19 20 21 22 23 24 25 26 27 28 29 30 31 32 33 34 35 36 37 38 39 40 41 42 43 44 45 46 47 48 49 50
000
ASUS43 KOAX 231610
RWRNE

WEATHER ROUNDUP FOR NEBRASKA
NATIONAL WEATHER SERVICE OMAHA NE
1100 AM CDT THU OCT 23 2014

NOTES: SATELLITE DATA IS BEING USED TO AUGMENT CLOUD COVER ABOVE
       12000 FEET.
       "FAIR" INDICATES FEW OR NO CLOUDS BELOW 12,000 FEET WITH NO
       SIGNIFICANT WEATHER AND/OR OBSTRUCTIONS TO VISIBILITY.

  * THESE STATIONS DO NOT REPORT WEATHER SUCH AS RAIN...SNOW OR FOG.

NEZ001>004-019>022-054>056-231700-
NEBRASKA PANHANDLE

CITY           SKY/WX    TMP DP  RH WIND       PRES   REMARKS
SCOTTSBLUFF    PTSUNNY   49  34  56 SE3       30.10F
ALLIANCE       PTSUNNY   54  32  43 W3        30.07S
CHADRON        CLOUDY    52  39  61 W3        30.03F
KIMBALL        MOSUNNY   59  38  44 W6        30.12F
SIDNEY         SUNNY     62  41  46 SW9       30.12F
$$

NEZ057>060-069>072-079>082-231700-
SOUTHWEST NEBRASKA

CITY           SKY/WX    TMP DP  RH WIND       PRES   REMARKS
NORTH PLATTE   SUNNY     52  43  71 CALM      30.11S
IMPERIAL       MOSUNNY   59  44  57 SW8       30.13S
LEXINGTON      FOG       52  51  98 CALM      30.11F VSB 1/4
MCCOOK         SUNNY     50  48  93 SW8       30.13S
OGALLALA       SUNNY     54  41  60 W8        30.11S
$$

NEZ005>010-023>029-035>040-094-231700-
NORTH CENTRAL NEBRASKA

CITY           SKY/WX    TMP DP  RH WIND       PRES   REMARKS
VALENTINE      SUNNY     51  38  60 SW10      30.04F
AINSWORTH      SUNNY     55  43  64 SW9       30.05S
BROKEN BOW     CLOUDY    53  53 100 SW7       30.10R FOG
O`NEILL        SUNNY     61  55  81 S13       30.06F
ORD            CLOUDY    51  50  96 CALM      30.09S FOG
THEDFORD       SUNNY     59  43  55 W6        30.08F
$$

NEZ041-046>049-061>064-073>077-083>087-231700-
SOUTH CENTRAL NEBRASKA

CITY           SKY/WX    TMP DP  RH WIND       PRES   REMARKS
GRAND ISLAND   FOG       50  49  96 S8        30.12R VSB<1/4
AURORA         CLOUDY    54  54 100 SW7       30.11S
HASTINGS       FOG       52  50  93 S6        30.11S VSB 1/4
HEBRON         FOG       58  56  94 CALM      30.11R VSB 1
HOLDREGE       FOG       51  50  97 CALM      30.11S VSB<1/4
KEARNEY *      CLOUDY    50  48  93 S5        30.12S VSB<1/4
YORK           CLOUDY    55  55 100 SW6       30.11R
$$

NEZ011>018-030>034-042>045-231700-
NORTHEAST NEBRASKA

CITY           SKY/WX    TMP DP  RH WIND       PRES   REMARKS
NORFOLK        SUNNY     58  52  80 CALM      30.08R
ALBION         SUNNY     55  54  94 CALM      30.08F
BLAIR          CLOUDY    56  55  94 W3        30.08S
COLUMBUS *     SUNNY     54  48  82 W3        30.11R
FREMONT        SUNNY     56  56  97 CALM      30.07F
TEKAMAH        PTSUNNY   55  53  93 E3        30.08S
WAYNE          SUNNY     59  54  83 SW6       30.08R
$$

NEZ050>053-065>068-078-088>093-231700-
SOUTHEAST NEBRASKA

CITY           SKY/WX    TMP DP  RH WIND       PRES   REMARKS
LINCOLN        FOG       56  54  93 W3        30.10R VSB 1/4
OMAHA EPPLEY   PTSUNNY   61  56  83 W7        30.08R
BEATRICE       CLOUDY    59  59 100 S3        30.10R FOG
FALLS CITY     MOSUNNY   66  61  84 SW12      30.08R
NEBRASKA CITY    N/A     63  62  95 NW8       30.08S
PLATTSMOUTH    CLOUDY    61  56  84 CALM      30.08S
$$

NEZ044-045-051>053-067-231700-
OMAHA AREA

CITY           SKY/WX    TMP DP  RH WIND       PRES   REMARKS
OMAHA EPPLEY   PTSUNNY   61  56  83 W7        30.08R
BLAIR          CLOUDY    56  55  94 W3        30.08S
FREMONT        SUNNY     56  56  97 CALM      30.07F
MILLARD        CLOUDY    58  55  90 W3        30.08S FOG
OFFUTT AFB     CLOUDY    62  62  99 NW5       30.07R
PLATTSMOUTH    CLOUDY    61  56  84 CALM      30.08S
WAHOO          FAIR      60  55  82 E3        30.07F
$$



USA.gov is the U.S. government's official web portal to all federal, state and local government web resources and services.